Wind_Speed
27 28 29 30 30 33 35 37 39 40 41 42 43 44 45 45 46 45 43 39 38 37 37 39 37 37 38 34 19 25 29 34 33 31 29 30 32 31 26 26 30 26 24 32 30 30 29
29 30 32 34 36 38 40 40 40 40 40 41 43 45 46 49 49 49 49 47 47 45 43 43 44 43 39 34 27 37 35 35 37 37 34 36 34 37 38 35 36 29 30 30 33 31 31
33 34 36 37 39 41 42 42 44 45 46 48 49 50 50 49 48 48 49 51 50 51 51 51 52 50 45 30 36 40 44 39 41 42 42 40 41 43 41 38 39 38 36 35 33 34 35
35 37 39 41 44 47 49 52 54 57 58 59 58 57 56 56 57 55 54 53 54 55 56 57 58 61 52 41 46 50 45 44 44 46 47 47 48 47 45 43 42 42 42 41 32 37 36
40 41 42 45 47 50 53 57 61 64 65 63 64 64 66 64 63 63 62 61 61 61 60 61 63 64 57 53 52 47 51 51 49 51 54 55 57 53 51 48 48 46 40 36 35 38 39
42 44 47 50 52 56 60 63 66 66 66 65 66 67 67 66 66 68 68 67 65 65 66 67 68 68 65 56 56 56 58 58 57 55 59 61 62 61 58 55 49 40 37 37 39 36 42
47 50 51 53 56 60 64 65 66 66 68 68 69 69 69 70 71 73 73 74 77 78 76 77 76 73 68 68 67 64 66 66 67 67 66 64 67 66 57 53 45 45 49 48 45 43 48
51 52 53 59 61 62 65 67 67 67 68 69 70 73 75 77 78 81 81 85 86 91 90 81 77 77 75 74 72 70 75 75 74 73 71 71 70 61 57 57 57 57 55 52 48 49 53
55 55 58 62 66 67 69 68 68 69 71 72 74 76 79 81 83 88 94 97 101 102 102 95 87 81 74 80 77 79 83 80 77 75 76 76 66 60 55 60 63 63 61 53 50 48 54
54 55 60 66 70 69 70 72 72 73 74 75 79 81 83 87 90 100 106 100 94 91 91 87 82 79 85 90 94 88 86 87 84 80 76 77 71 67 64 61 62 66 60 56 53 52 56
58 61 64 69 70 73 76 77 77 80 81 82 83 88 96 104 105 99 85 73 68 65 64 50 53 61 68 83 74 85 87 87 90 85 84 80 76 75 73 66 62 65 58 59 58 54 58
62 65 68 71 74 77 80 80 82 85 84 85 92 100 107 97 80 72 64 53 41 40 41 27 35 39 32 46 60 53 55 68 82 75 80 75 73 68 68 61 55 54 54 54 55 57 68
65 69 70 73 78 79 82 85 88 86 86 94 101 101 90 77 62 49 41 30 22 20 19 25 33 34 33 32 32 43 54 50 64 74 83 84 81 77 69 69 65 63 58 58 59 65 74
68 71 74 76 77 81 85 90 91 91 95 100 98 87 78 58 38 34 34 24 20 12 14 18 25 29 41 41 33 33 38 49 40 38 57 70 82 82 77 74 70 68 63 62 64 65 64
71 73 75 76 80 83 88 91 92 95 100 101 88 77 60 36 29 27 30 21 17 13 15 21 14 17 35 35 54 40 32 44 42 32 40 55 66 70 73 71 68 68 67 58 57 60 58
71 73 75 78 82 87 91 94 96 100 102 91 79 64 38 31 26 26 27 13 15 17 20 24 16 16 21 29 37 56 34 32 40 38 39 36 40 52 57 61 69 69 56 62 59 61 61
71 73 77 81 84 89 93 96 99 101 93 80 72 59 34 28 24 26 23 21 20 26 22 24 28 27 19 20 26 39 41 40 48 48 48 48 39 36 39 54 64 68 68 66 64 65 65
69 74 78 81 84 89 92 96 97 94 83 70 68 65 40 22 22 22 21 21 22 24 26 28 25 30 28 23 22 36 38 34 22 48 54 52 56 53 40 35 53 56 57 57 59 58 60
72 76 80 82 85 91 94 97 91 78 73 69 63 62 43 35 22 22 21 18 26 26 32 24 24 32 27 29 30 21 42 47 36 21 23 52 51 55 53 49 41 51 54 57 56 58 59
74 76 79 81 87 90 93 93 84 72 65 67 64 65 60 32 28 24 28 23 28 27 31 31 26 23 31 26 32 26 27 49 42 24 26 50 46 45 54 60 50 43 49 55 53 57 58
73 78 79 83 87 91 93 88 76 67 60 62 63 61 63 36 25 26 25 27 23 27 31 34 26 25 24 28 33 29 26 43 52 20 29 31 53 49 34 45 48 46 40 47 52 51 52
75 80 81 84 88 92 91 80 70 65 60 58 60 63 60 49 26 20 24 27 21 26 34 36 34 27 21 23 31 26 26 26 38 26 12 39 35 47 35 33 45 47 45 44 48 49 54
76 79 81 85 88 90 86 74 63 59 57 57 61 61 59 53 28 22 23 17 20 26 31 32 32 27 19 17 27 29 18 27 47 37 21 21 40 45 51 45 43 39 38 43 46 44 47
77 80 81 86 87 88 83 70 60 55 55 56 58 60 58 56 29 17 15 15 21 25 30 28 32 33 23 13 21 25 18 16 31 41 34 16 17 23 41 50 49 47 35 37 30 35 43
76 78 80 85 88 88 78 66 59 54 50 52 55 58 58 57 31 12 15 17 19 21 21 26 25 32 29 15 9 11 18 14 22 40 39 28 6 14 39 18 18 55 50 42 38 40 44
74 76 79 83 87 86 76 65 56 50 48 49 53 54 57 58 33 12 15 21 21 16 15 23 27 31 25 14 3 11 14 14 11 17 33 27 13 11 16 11 16 18 24 29 36 45 38
72 74 79 83 86 85 74 60 54 48 45 46 51 51 53 56 34 13 15 13 14 16 22 24 27 22 17 10 3 9 14 18 14 13 14 17 20 20 26 23 11 21 21 18 33 37 32
72 76 79 83 85 82 72 62 51 47 44 42 45 48 50 51 31 15 14 11 22 25 24 31 29 24 18 9 5 8 14 18 14 12 13 16 27 25 27 31 22 21 27 27 25 30 31
72 75 79 83 85 84 74 66 55 45 43 38 40 44 45 45 40 19 18 20 20 25 26 30 27 24 21 14 6 9 13 21 18 15 18 15 18 29 30 32 31 34 28 26 27 29 30
Wind_Direction
323 322 320 315 313 312 311 309 307 306 305 303 300 296 292 289 287 285 283 279 276 272 268 266 264 264 266 260 249 242 241 254 255 252 245 242 239 242 245 245 246 233 210 214 217 224 221
326 322 322 320 318 316 316 316 315 313 310 308 307 302 296 292 289 285 282 279 276 274 271 268 264 262 261 271 245 244 237 244 255 257 250 245 244 247 241 236 242 240 239 230 229 228 233
323 319 318 319 320 320 320 322 322 321 317 316 313 310 304 298 292 288 284 281 277 273 270 267 267 262 260 264 248 239 246 235 238 248 252 248 245 245 247 243 239 239 233 235 237 238 236
326 325 324 323 324 328 330 329 328 325 322 318 314 310 307 303 300 294 290 285 281 275 271 267 263 263 261 252 247 241 243 245 239 240 246 248 248 244 244 244 244 241 237 233 228 237 238
329 328 327 328 330 331 331 329 326 325 320 317 312 309 306 303 301 298 295 290 284 278 275 266 263 262 260 252 249 249 241 243 237 236 238 241 245 244 241 240 240 235 234 231 223 231 237
331 331 333 334 335 333 332 329 325 320 316 312 309 307 305 303 304 300 296 292 287 282 278 272 267 264 266 262 251 248 245 242 241 237 235 238 241 244 241 238 233 234 238 234 231 236 244
334 334 335 335 335 334 329 325 320 316 314 312 309 307 305 302 299 294 291 288 285 281 277 277 275 271 267 258 253 247 241 240 241 239 236 236 238 242 249 249 249 244 240 240 238 242 243
333 334 338 338 333 328 325 323 321 317 314 312 309 307 304 300 297 295 293 292 289 286 284 284 280 274 268 262 257 247 246 240 238 239 239 236 240 243 239 240 244 243 239 236 240 241 242
336 338 337 334 332 330 328 325 321 318 314 311 307 304 301 300 298 296 293 290 288 285 281 278 282 273 262 250 251 242 241 244 240 239 240 242 245 242 238 239 239 242 243 242 245 248 250
336 337 336 333 332 330 327 325 323 320 317 314 313 310 306 302 300 296 296 294 291 285 278 279 268 253 238 239 239 234 232 235 238 237 237 240 238 236 233 233 238 239 242 244 245 247 249
337 338 336 333 332 328 327 327 324 322 321 320 317 310 308 306 304 306 301 289 285 280 277 276 262 256 248 239 244 237 236 236 231 232 234 234 236 238 238 236 232 236 233 236 241 244 247
337 337 335 332 331 330 328 327 325 324 325 323 318 315 314 318 313 305 300 295 292 283 284 264 252 242 250 254 240 234 231 239 238 232 233 233 235 237 239 237 235 237 236 231 233 238 241
334 336 334 333 332 331 329 329 328 328 326 322 322 324 324 323 314 311 313 311 298 291 269 251 238 227 220 202 206 220 230 231 231 233 227 226 230 233 232 232 229 230 230 231 229 231 241
335 336 337 333 332 331 332 330 331 328 326 326 332 332 332 325 321 326 325 308 294 305 313 280 256 234 221 219 193 203 210 220 220 229 231 233 229 230 228 232 234 235 232 233 235 238 246
337 337 335 334 332 332 333 333 331 330 330 334 338 338 337 330 328 339 334 329 306 256 258 278 280 271 248 225 222 208 203 212 212 216 230 229 231 229 234 235 235 234 233 236 241 245 246
336 336 335 334 334 336 335 332 331 332 336 340 346 343 331 334 340 344 353 349 326 296 262 265 282 304 277 249 213 228 217 207 206 201 215 223 235 232 229 233 235 233 233 236 235 239 242
337 337 336 336 337 337 334 334 335 338 341 345 350 352 333 322 324 345 351 358 319 313 299 283 268 272 280 264 249 218 206 213 218 204 213 214 223 233 229 229 230 234 230 233 235 237 243
337 338 337 337 339 337 335 337 339 340 343 349 356 1 352 328 335 341 350 345 347 355 343 298 283 277 263 265 254 241 235 230 200 207 213 220 226 233 231 232 229 231 232 238 242 243 247
338 339 338 338 337 336 338 339 342 343 345 353 358 4 356 342 320 322 330 341 341 342 341 340 292 274 269 259 258 247 229 214 200 223 206 214 223 221 226 231 227 224 230 234 234 240 244
339 337 339 339 338 337 340 341 343 344 347 352 356 358 4 350 330 317 322 318 319 336 341 340 331 294 264 256 259 244 241 228 216 231 193 200 215 218 230 239 233 232 229 230 232 234 242
337 338 340 340 340 340 342 343 344 344 347 352 352 353 356 347 339 328 322 329 320 321 331 335 338 321 290 253 240 253 242 230 222 211 231 234 213 215 224 226 229 234 237 238 237 235 238
339 340 341 340 341 343 343 343 347 345 346 349 350 348 353 354 328 334 316 320 314 322 334 334 333 332 312 268 241 229 256 257 220 207 222 215 226 215 218 221 229 232 240 242 242 237 234
338 341 342 342 343 343 344 345 346 346 349 351 351 352 348 350 338 329 334 317 317 321 337 338 334 331 318 274 249 241 250 234 215 208 209 191 205 228 232 232 223 225 227 236 237 240 241
339 342 343 342 343 344 345 346 347 346 349 349 349 350 348 351 338 326 330 319 311 324 334 337 334 334 326 299 247 245 238 244 233 230 236 283 234 206 203 226 237 229 220 221 220 233 237
340 343 343 343 344 345 346 346 346 346 349 350 350 349 347 350 339 312 313 333 317 321 343 348 355 335 334 333 254 238 250 249 230 229 238 262 245 226 198 206 208 230 241 235 226 219 223
341 343 343 344 346 345 345 346 346 344 346 350 349 351 348 349 339 305 310 326 326 321 352 357 348 348 342 352 236 212 236 246 229 242 246 256 226 199 237 248 254 244 238 226 221 223 235
342 343 344 346 346 345 345 346 345 343 343 346 348 351 349 351 343 325 330 355 360 341 347 349 351 2 357 1 239 180 214 230 228 230 221 245 225 210 192 195 217 217 205 220 230 234 238
342 342 344 346 345 344 344 347 345 343 344 344 347 354 350 355 344 329 330 341 344 342 348 347 347 349 357 344 253 223 201 221 227 239 211 224 225 219 219 211 236 238 227 216 223 220 208
341 342 345 345 345 343 344 345 347 344 344 343 343 357 354 354 0 319 311 326 327 339 344 348 356 353 346 356 293 236 213 220 228 228 227 214 220 224 223 236 239 237 239 223 234 243 238
Height
5824 5820 5817 5812 5808 5803 5798 5794 5789 5784 5779 5775 5770 5764 5759 5756 5752 5749 5747 5745 5742 5740 5738 5734 5732 5731 5731 5730 5737 5737 5735 5734 5735 5735 5736 5736 5736 5736 5738 5740 5740 5744 5749 5748 5750 5751 5754
5820 5816 5811 5807 5801 5796 5791 5786 5780 5775 5770 5765 5760 5755 5749 5745 5740 5737 5734 5732 5731 5731 5727 5724 5723 5720 5719 5718 5730 5722 5725 5727 5729 5729 5730 5728 5731 5731 5729 5731 5731 5736 5739 5742 5743 5746 5747
5817 5812 5807 5800 5795 5789 5783 5778 5772 5766 5760 5754 5747 5742 5736 5732 5728 5724 5721 5718 5718 5715 5713 5713 5709 5706 5706 5720 5717 5714 5708 5715 5716 5719 5720 5723 5720 5718 5723 5726 5726 5727 5728 5732 5736 5739 5739
5811 5805 5799 5793 5788 5781 5775 5768 5760 5752 5745 5737 5731 5726 5721 5716 5712 5709 5706 5704 5701 5698 5697 5695 5693 5690 5689 5705 5700 5696 5703 5703 5705 5706 5709 5710 5710 5710 5709 5713 5715 5716 5718 5721 5731 5731 5734
5803 5798 5793 5787 5780 5773 5764 5755 5748 5741 5732 5725 5717 5710 5702 5697 5691 5686 5684 5681 5680 5676 5677 5676 5674 5672 5674 5684 5687 5693 5689 5690 5689 5691 5694 5695 5695 5699 5701 5702 5702 5706 5712 5718 5722 5724 5724
5799 5792 5785 5776 5768 5761 5755 5748 5740 5730 5721 5713 5703 5693 5685 5678 5673 5664 5660 5658 5656 5653 5652 5650 5650 5652 5661 5670 5675 5675 5672 5674 5673 5674 5675 5677 5680 5685 5687 5690 5694 5705 5708 5711 5714 5718 5714
5789 5781 5773 5767 5761 5755 5746 5738 5727 5716 5706 5695 5685 5677 5669 5662 5654 5644 5639 5634 5631 5631 5629 5627 5627 5630 5637 5641 5648 5653 5652 5652 5654 5654 5655 5659 5660 5664 5682 5689 5697 5696 5692 5696 5703 5705 5702
5781 5775 5769 5761 5752 5744 5735 5725 5715 5704 5693 5681 5670 5660 5651 5641 5629 5618 5609 5603 5598 5591 5597 5595 5600 5602 5613 5611 5619 5629 5627 5630 5630 5636 5640 5640 5639 5660 5670 5672 5676 5678 5679 5686 5694 5695 5692
5777 5769 5759 5752 5746 5736 5725 5712 5701 5689 5677 5666 5653 5641 5631 5618 5607 5595 5580 5571 5562 5554 5555 5579 5572 5563 5575 5571 5585 5591 5598 5607 5615 5617 5622 5625 5642 5649 5655 5656 5658 5664 5667 5677 5683 5686 5683
5768 5760 5753 5743 5734 5722 5710 5698 5686 5673 5660 5648 5634 5618 5604 5591 5583 5565 5546 5530 5520 5512 5504 5549 5539 5531 5535 5533 5530 5556 5568 5573 5581 5596 5603 5604 5622 5629 5629 5637 5646 5648 5661 5666 5667 5669 5669
5760 5753 5745 5733 5722 5709 5697 5685 5672 5657 5642 5628 5612 5593 5575 5553 5542 5522 5511 5489 5483 5479 5476 5505 5498 5488 5500 5510 5511 5529 5540 5543 5550 5567 5575 5591 5601 5609 5613 5626 5631 5636 5645 5649 5651 5654 5654
5753 5744 5735 5723 5711 5698 5686 5671 5654 5638 5622 5606 5587 5563 5541 5525 5500 5486 5476 5467 5463 5466 5467 5478 5473 5475 5481 5483 5494 5502 5508 5522 5534 5539 5549 5570 5582 5588 5604 5616 5619 5628 5630 5631 5634 5638 5628
5744 5736 5724 5712 5699 5685 5670 5654 5638 5620 5603 5585 5560 5533 5508 5492 5479 5464 5460 5458 5457 5455 5457 5457 5459 5466 5472 5468 5478 5483 5494 5499 5507 5517 5524 5552 5556 5569 5583 5590 5599 5603 5611 5614 5615 5613 5611
5736 5725 5714 5700 5685 5672 5658 5640 5623 5603 5583 5561 5535 5508 5491 5474 5463 5459 5454 5452 5450 5452 5450 5450 5451 5452 5458 5458 5461 5471 5477 5486 5498 5506 5520 5526 5534 5549 5568 5573 5586 5591 5596 5600 5601 5606 5613
5728 5715 5702 5690 5677 5661 5645 5627 5607 5587 5563 5541 5516 5493 5479 5468 5461 5456 5452 5447 5445 5444 5443 5442 5447 5447 5447 5450 5458 5461 5467 5475 5490 5501 5507 5513 5518 5536 5547 5562 5569 5574 5573 5600 5594 5595 5600
5716 5705 5694 5680 5666 5651 5633 5614 5593 5570 5547 5524 5506 5484 5472 5467 5460 5455 5450 5446 5443 5441 5441 5440 5442 5442 5438 5443 5449 5451 5459 5470 5477 5484 5488 5500 5508 5515 5530 5537 5545 5551 5580 5570 5577 5579 5584
5708 5699 5687 5673 5656 5638 5618 5599 5578 5555 5531 5513 5498 5481 5471 5464 5460 5455 5450 5446 5443 5440 5437 5437 5437 5435 5436 5437 5440 5445 5455 5459 5463 5470 5476 5488 5494 5502 5511 5517 5531 5543 5549 5555 5566 5567 5572
5703 5691 5676 5660 5644 5625 5605 5584 5560 5539 5523 5509 5492 5476 5465 5462 5460 5454 5449 5445 5443 5439 5435 5432 5432 5429 5433 5432 5435 5438 5441 5445 5448 5458 5470 5479 5485 5489 5501 5510 5519 5528 5536 5546 5550 5564 5566
5696 5683 5666 5650 5632 5614 5596 5573 5548 5527 5509 5500 5491 5481 5466 5460 5455 5451 5448 5444 5439 5436 5433 5428 5425 5423 5425 5427 5424 5429 5434 5440 5443 5453 5461 5466 5469 5477 5485 5497 5504 5513 5525 5534 5541 5549 5550
5689 5671 5656 5639 5623 5605 5585 5562 5539 5523 5509 5496 5483 5471 5467 5455 5450 5446 5443 5441 5437 5435 5430 5424 5420 5416 5416 5420 5419 5423 5426 5432 5436 5444 5448 5455 5460 5468 5477 5495 5506 5509 5517 5525 5530 5533 5544
5677 5663 5648 5632 5615 5595 5575 5553 5535 5519 5506 5493 5482 5473 5460 5452 5448 5442 5438 5436 5433 5430 5427 5420 5418 5412 5408 5412 5413 5417 5420 5424 5432 5439 5444 5446 5454 5465 5473 5482 5492 5501 5508 5514 5516 5531 5530
5672 5657 5641 5623 5605 5586 5564 5545 5531 5513 5502 5493 5480 5465 5461 5451 5443 5439 5434 5433 5430 5427 5423 5417 5411 5408 5405 5404 5407 5414 5415 5420 5427 5432 5438 5442 5452 5460 5467 5472 5480 5489 5498 5504 5511 5521 5517
5664 5650 5634 5617 5599 5578 5558 5540 5523 5509 5497 5486 5475 5467 5456 5447 5438 5435 5432 5429 5427 5423 5422 5413 5405 5400 5399 5398 5402 5408 5411 5415 5420 5426 5430 5435 5445 5452 5460 5468 5475 5479 5489 5497 5504 5510 5515
5659 5644 5629 5611 5593 5573 5555 5537 5521 5509 5498 5486 5474 5463 5452 5445 5433 5431 5429 5426 5425 5421 5416 5412 5403 5398 5395 5393 5397 5404 5409 5413 5417 5420 5425 5430 5436 5442 5445 5460 5465 5474 5483 5488 5493 5501 5504
5651 5637 5622 5605 5587 5569 5550 5534 5519 5508 5497 5487 5474 5462 5450 5442 5431 5428 5426 5424 5422 5419 5414 5408 5404 5397 5391 5390 5394 5399 5404 5408 5412 5416 5420 5425 5432 5436 5443 5449 5453 5463 5467 5472 5479 5486 5486
5643 5630 5615 5599 5582 5563 5546 5530 5517 5506 5495 5487 5475 5462 5450 5437 5428 5424 5423 5421 5418 5416 5414 5411 5405 5396 5390 5388 5390 5394 5400 5405 5410 5414 5418 5421 5426 5431 5440 5447 5449 5450 5454 5460 5469 5475 5476
5639 5623 5610 5593 5576 5559 5543 5528 5514 5502 5492 5484 5474 5461 5450 5438 5426 5423 5422 5420 5417 5415 5413 5409 5404 5399 5392 5389 5389 5392 5396 5401 5405 5409 5416 5417 5422 5429 5435 5438 5439 5442 5446 5455 5460 5467 5465
5633 5620 5604 5588 5571 5554 5539 5526 5512 5500 5490 5482 5474 5461 5449 5440 5428 5424 5421 5420 5418 5414 5410 5407 5403 5398 5394 5390 5389 5389 5393 5396 5402 5405 5408 5412 5416 5422 5428 5430 5432 5433 5439 5445 5444 5449 5454
5627 5613 5599 5583 5567 5551 5536 5521 5509 5497 5487 5478 5471 5461 5450 5439 5431 5425 5422 5420 5418 5414 5410 5406 5400 5395 5391 5389 5388 5388 5390 5393 5396 5399 5402 5406 5408 5413 5418 5418 5420 5427 5431 5430 5432 5438 5443